QAEM 100 DEB

Last updated on Tue Oct 08 2024 00:02:04 GMT+0000 (Coordinated Universal Time)

1 61181U 24165C 24281.47647732 .00307619 00000+0 16071-1 0 9993 2 61181 64.1207 263.7665 0007538 287.6171 72.4122 15.14186887 3212
UTC large
Height (km)
Speed (km/s)
/
Latitude / Longitude
Inclination (degrees)
Orbital Period (minutes)
Azimuth
Elevation
Range (km)
Doppler Factor

Next 0 passes for location: London (51.5072 / 0.1276)

Sorry there are no passes over London.